Location: Ay?beleni
(36.6500°N, 30.3000°E)
Time: 17:48:19
(UTC+00:00)

Nadezhda 1 Rocket - Visible Passes

Search period start: 16 June 2021 00:00
Search period end: 26 June 2021 00:00
Orbit: 940 x 1006 km, 83.0° (Epoch: 16 June)

Date Brightness Start Highest point End Pass type
(mag) Time Alt. Az. Time Alt. Az. Time Alt. Az.
16 Jun 6.8 01:37:09 10° NE 01:40:43 16° ENE 01:44:18 10° ESE visible
17 Jun 6.2 02:00:31 10° NNE 02:05:49 29° ENE 02:11:09 10° SE visible
19 Jun 6.9 01:06:56 10° NE 01:09:28 12° ENE 01:11:59 10° E visible
20 Jun 6.4 01:29:43 10° NNE 01:34:37 24° ENE 01:39:33 10° SE visible
21 Jun 5.3 01:53:42 10° N 01:59:36 44° E 02:05:33 10° SSE visible
23 Jun 6.6 00:59:01 10° NNE 01:03:25 20° ENE 01:07:49 10° ESE visible
24 Jun 5.6 01:22:46 10° NNE 01:28:27 36° ENE 01:34:11 10° SE visible
25 Jun 4.5 01:47:05 10° N 01:53:19 66° E 01:59:36 10° SSE visible
